Regional Weather Roundup
Issued by NWS

Home | Current Version | Previous Version | Text Only | Print | Product List | Glossary Off
Versions: 1 2 3 4 5 6 7 8 9 10 11 12 13 14 15 16 17 18 19 20 21 22 23 24 25 26 27 28 29 30 31 32 33 34 35 36 37 38 39 40 41 42 43 44 45 46 47 48 49 50

000
ASUS43 KMPX 291310
RWRMN
WEATHER ROUNDUP FOR MINNESOTA
NATIONAL WEATHER SERVICE TWIN CITIES/CHANHASSEN MN
800 AM CDT THU JUN 29 2017


NOTE: "FAIR" INDICATES FEW OR NO CLOUDS BELOW 12,000 FEET WITH NO
SIGNIFICANT WEATHER AND/OR OBSTRUCTIONS TO VISIBILITY. N/A MEANS
CURRENT SKY AND/OR WEATHER CONDITIONS ARE NOT AVAILABLE.

MNZ060>063-068>070-291400-
   Twin Cities Metro

CITY           SKY/WX    TMP DP  RH WIND       PRES   REMARKS
TWIN CITIES    CLOUDY    66  58  75 W9        29.73R
ST PAUL        CLOUDY    67  59  75 W8        29.73R
CRYSTAL        CLOUDY    66  57  72 W9        29.71S
BLAINE         CLOUDY    66  59  77 W8        29.71S
LAKEVILLE      CLOUDY    64  61  88 W6        29.75R
EDEN PRAIRIE   CLOUDY    66  59  78 W9        29.74R
SOUTH ST PAUL  CLOUDY    66  59  76 W7        29.72S
LAKE ELMO      CLOUDY    66  59  77 W9        29.71F
$$
MNZ001>005-007-008-013>017-022>024-027-028-291400-
   Northwest Minnesota

CITY           SKY/WX    TMP DP  RH WIND       PRES   REMARKS
BEMIDJI        CLOUDY    59  57  93 NW10      29.73S
HALLOCK        FOG       57  55  94 CALM      29.76F VSB 1/2
ROSEAU         SUNNY     61  55  82 NW5       29.76R
WARROAD        SUNNY     61  55  82 N5        29.75S
THIEF RVR FALL CLOUDY    61  59  94 N7        29.76S
CROOKSTON      FOG       59  57  94 NE6       29.76S VSB 1/2
FOSSTON        CLOUDY    57  57 100 N5        29.76R FOG
DETROIT LAKES  CLOUDY    59  59 100 NW5       29.78R
MOORHEAD       CLOUDY    63  59  88 N3        29.78R
PARK RAPIDS    CLOUDY    64  57  78 NW9       29.74R
MAHNOMEN       CLOUDY    61  58  91 N6        29.75S
$$
MNZ006-009>011-018-025>026-291400-
   North Central Minnesota

CITY           SKY/WX    TMP DP  RH WIND       PRES   REMARKS
BAUDETTE       MOSUNNY   63  60  90 NW6       29.73R
FLAG ISLAND    SUNNY     63  57  82 N6        29.74R
INTL FALLS     CLOUDY    60  57  89 N5        29.70S
WASKISH        MOSUNNY   61  59  94 NE6       29.72S
BIG FORK       CLOUDY    61  57  88 N3        29.70S
LONGVILLE      CLOUDY    61  57  88 NW8       29.71R
GRAND RAPIDS   CLOUDY    59  58  96 NW13      29.69S FOG
CRANE LAKE     CLOUDY    57  57 100 N5        29.69R
ORR            CLOUDY    59  55  88 NW3       29.66R
COOK           CLOUDY    59  57  94 CALM      29.68R
WALKER         CLOUDY    60  57  90 NW8       29.72R
$$
MNZ012-019>021-037-291400-
   Northeast Minnesota

CITY           SKY/WX    TMP DP  RH WIND       PRES   REMARKS
DULUTH         CLOUDY    59  58  96 NW8       29.64R
ELY            CLOUDY    57  57 100 N7        29.64R
HIBBING        CLOUDY    57  57 100 N12       29.66R
EVELETH        CLOUDY    58  55  88 NW7       29.67R
DULUTH HARBOR  CLOUDY    61  59  94 W7        29.63R
TWO HARBORS    CLOUDY    63  57  82 CALM      29.60R
SILVER BAY     DRIZZLE   57  57 100 CALM      29.58F
GRAND MARAIS     N/A     61  57  87 N10G22    29.56R
G MARAIS ARPRT CLOUDY    54  52  94 N12G20    29.61R
$$
MNZ029>031-032-039>041-046>048-054>057-064-291400-
   West Central Minnesota

CITY           SKY/WX    TMP DP  RH WIND       PRES   REMARKS
FERGUS FALLS   CLOUDY    61  61 100 NW6       29.77R
WHEATON        CLOUDY    63  59  88 W8        29.80S
MORRIS         CLOUDY    64  59  82 NW10      29.77F
ALEXANDRIA     CLOUDY    62  58  86 NW8       29.79R
ELBOW LAKE     CLOUDY    61  59  93 NW5       29.80R
WADENA         CLOUDY    61  57  88 N7        29.75S
GLENWOOD       CLOUDY    63  57  82 NW7       29.79R
APPLETON       CLOUDY    64  57  77 N7        29.78R
BENSON         CLOUDY    64  59  82 N3        29.79R
ORTONVILLE     CLOUDY    64  59  82 NW7       29.79R
MADISON        CLOUDY    66  64  94 NW3       29.78R
WILLMAR        CLOUDY    64  61  88 W5        29.80R
$$
MNZ033>034-036-042>043-049>051-058-059-291400-
   Central Minnesota

CITY           SKY/WX    TMP DP  RH WIND       PRES   REMARKS
ST CLOUD       CLOUDY    63  59  87 NW6       29.73R
SAUK CENTRE    CLOUDY    62  58  88 NW9       29.76R
PAYNESVILLE    CLOUDY    63  64 100 NW3       29.77R
AITKIN         CLOUDY    61  57  88 NW6       29.69R
PINE RIVER     CLOUDY    61  57  88 MISG      29.76R
BRAINERD       CLOUDY    61  58  90 NW7       29.73R
STAPLES        CLOUDY    63  57  82 N8        29.74R
LONG PRAIRIE   CLOUDY    61  57  88 W7        29.76R
LITTLE FALLS   CLOUDY    61  55  82 NW6       29.74R
LITCHFIELD     CLOUDY    64  61  88 W3        29.77R
BUFFALO        CLOUDY    64  57  79 W9        29.77R
MAPLE LAKE     CLOUDY    64  60  85 W5        29.77R
HUTCHINSON     CLOUDY    62  61  96 W7        29.79R
$$
MNZ037-044-045-052-053-291400-
   East Central Minnesota

CITY           SKY/WX    TMP DP  RH WIND       PRES   REMARKS
PRINCETON      CLOUDY    64  61  88 NW5       29.72R
MORA           CLOUDY    61  55  82 NW7       29.72R
CAMBRIDGE      CLOUDY    64  57  77 NW5       29.69R
RUSH CITY      CLOUDY    63  57  82 NW5       29.71R
MOOSE LAKE     CLOUDY    59  57  94 W3        29.67R FOG
HINCKLEY       CLOUDY    63  59  88 W7        29.69R
CLOQUET        CLOUDY    61  55  82 NW8       29.65S
MCGREGOR       CLOUDY    61  59  94 W7        29.70R
$$
MNZ071>073-080-081-089-090-097-098-291400-
   Southwest Minnesota

CITY           SKY/WX    TMP DP  RH WIND       PRES   REMARKS
MONTEVIDEO     CLOUDY    63  61  94 N8        29.78R
GRANITE FALLS  CLOUDY    64  61  91 W5        29.81R
CANBY          CLOUDY    63  61  94 CALM      29.80S FOG
MARSHALL       CLOUDY    62  60  93 NW5       29.80R
REDWOOD FALLS  CLOUDY    62  59  90 NW8       29.77S
OLIVIA         CLOUDY    61  59  94 N6        29.77S
PIPESTONE      MOSUNNY   64  59  82 CALM      29.79F
WINDOM         SUNNY     64  61  88 SW5       29.77F
WORTHINGTON    MOSUNNY   66  61  84 N5        29.78F
JACKSON        MOSUNNY   64  61  88 CALM      29.77F
TRACY          CLOUDY    64  62  94 W3        29.79F
SLAYTON        MOSUNNY   62  60  92 CALM      29.80F
$$
MNZ065>067-074>077-082>085-091>093-291400-
   South Central Minnesota

CITY           SKY/WX    TMP DP  RH WIND       PRES   REMARKS
MANKATO        MOSUNNY   64  60  87 W12       29.78R
NEW ULM        MOSUNNY   63  61  94 W6        29.77R
ST JAMES       SUNNY     66  63  88 W5        29.77F
FAIRMONT       SUNNY     66  61  84 CALM      29.78R
GLENCOE        CLOUDY    63  62  97 W7        29.77R
FARIBAULT      MOSUNNY   64  61  88 W7        29.76R
OWATONNA       MOSUNNY   64  63  94 W9        29.76R
WASECA         SUNNY     63  59  88 W7        29.78R
ALBERT LEA     MOSUNNY   64  61  88 NW10G16   29.76R
$$
MNZ078>079-086>088-094>096-291400-
   Southeast Minnesota

CITY           SKY/WX    TMP DP  RH WIND       PRES   REMARKS
ROCHESTER      MOSUNNY   65  62  90 W12       29.76F
RED WING       MOSUNNY   70  57  64 W9        29.70S
STANTON        SUNNY     66  60  82 W8        29.73S
DODGE CENTER   MOSUNNY   64  61  88 W9        29.75S
WINONA         SUNNY     70  61  73 W7        29.72S
AUSTIN         SUNNY     64  61  88 NW10      29.75R
PRESTON        SUNNY     64  60  86 NW12      29.75S
$$
ABBREVIATIONS USED IN REMARKS
   TC - TEMPERATURES IN CELSIUS
  WCI - WIND CHILL INDEX
   HX - HEAT INDEX
  VSB - VISIBILITY
$$



USA.gov is the U.S. government's official web portal to all federal, state and local government web resources and services.